Weather in Burton-Upon-Trent

United Kingdom     52°48′32″N   1°37′59″W
temp.,
°C
wind,
m/s
gust,
m/s
humid.,
%
clouds,
%
prec.,
mm/h
press.,
hPa
HPBL,
m
9 may, sun
sun901:00+12ssw81592100 1.0 996823
04:00+12ssw61496100 0.6 995835
07:00+11s51398100 1.9 994890
10:00+14ssw71283100 0.2 9941014
13:00+16ssw71364100 0.2 9941622
16:00+15ssw71379100 0.6 9941446
19:00+13ssw51182100 0.9 9941135
22:00+10s4990100 0.0 994271
10 may, mon
mon1001:00+9s4987100 0.0 994364
04:00+9ssw51089100 0.0 994590
07:00+10s61176100 0.0 9941109
10:00+11s7117836 0.1 9961216
13:00+13ssw81375100 0.6 9971651
16:00+13ssw914765 0.9 9991660
19:00+11ssw713843 1.7 10011201
22:00+8ssw512875 0.1 1004494
11 may, tue
tue1101:00+5s37937 0.1 1006165
04:00+5s34940 0.0 100672
07:00+7se359175 0.0 1007160
10:00+12sse4671100 0.0 1007928
13:00+12sse4782100 1.4 1006957
16:00+12sse6982100 1.9 10051016
19:00+11sse612855 2.8 1005930
22:00+8sse7139143 0.4 1006609
12 may, wed
wed1201:00+6s4109615 0.4 1006292
04:00+9s599381 0.0 1006579
07:00+9s5109265 0.2 1007503
10:00+11ssw6774100 0.1 10081081
13:00+11s5774100 0.1 10091178
16:00+13ssw586971 0.3 10081371
19:00+12sw47801 1.3 1009730
22:00+8ssw23903 0.1 101029
13 may, thu
thu1301:00+6sw229334 0.1 101118
04:00+5sw009333 0.0 101110
07:00+7e009085 0.0 101163
10:00+12sse127283 0.0 1011659
13:00+11s4382100 0.7 1011358
16:00+10n3490100 2.6 1011323
19:00+9nne3494100 3.5 1010226
22:00+8nne2498100 4.1 1011175